Find Kosmos-1684

NORAD ID: 16064 Int'l Des: 1985-084 Owner: PVO Country: SU operational
MEOELLIPTICALHEO_ELLIPTICALSEMI_SYNC

Live Position

Loading 3D Globe...

About Kosmos-1684

Description loading...

Upcoming Passes

Passes for default location (London). Set your location on the main map for personalized predictions.

Altitude History

Loading altitude history...

Two-Line Element Set

1 16064U 85084A 26104.35036911 -.00000437 00000-0 00000+0 0 9997
2 16064 67.7011 86.0057 5181525 96.8712 322.0654 2.00793822297044
Epoch: Apr 14, 2026 • Age: 72 hours

Current Status

Altitude 10051.4 km
Velocity 5.79 km/s
Sub-Earth Point 25.17°N, 121.88°E
Launch Date Sep 24, 1985
Age 40.5 years
Type other

Technical Details

Classification Payload
Mass 1250.00 kg
Dry Mass 1150.00 kg
Total Mass 1250.00 kg
Length 4.00 m
Diameter 2.00 m
Span 5.00 m
Shape Cyl + 2 Pan
Manufacturer NPOL/KOMET
Bus Type Oko
Phase Status In Orbit
Owner/State PVO/SU

Most Searched